Location: Greenlawn
(40.8690°N, 73.3651°W)
Time: 14:18:38
(UTC+00:00)

Daily predictions for brighter satellites

Satellite Brightness Start Highest point End
(mag) Time Altitude Azimuth Time Altitude Azimuth Time Altitude Azimuth
Cosmos 1782 2.9 21:50:49 10° S 21:54:43 57° E 21:58:38 10° NNE
CZ-2C R/B 3.9 21:52:03 10° NE 21:55:41 19° E 21:59:18 10° SE
Cosmos 1743 Rocket 3.8 21:51:35 10° N 21:55:54 76° W 22:00:13 10° S
COSMOS 2406 3.7 21:50:52 10° SSW 21:56:35 67° WNW 22:02:18 10° NNE
Cosmos 858 Rocket 4.5 21:54:39 10° NNW 21:59:57 77° ENE 22:05:12 10° SSE
SL-24 R/B - RUBIN 2 3.5 21:59:19 10° NNW 22:03:45 62° NE 22:08:01 10° SE
Cosmos 2279 Rocket 4.3 21:59:18 10° SSE 22:05:07 44° E 22:10:57 10° NNE
CZ-4C R/B 3.2 21:59:05 10° NNW 22:06:14 53° NE 22:14:28 10° SE
Cosmos 1666 Rocket 4.1 22:03:05 10° N 22:07:11 36° ENE 22:11:13 10° SE
Cosmos 1666 3.5 22:04:14 10° NNE 22:07:30 29° ENE 22:10:45 10° SE
Cosmos 1627 Rocket 4.4 22:01:24 10° N 22:07:34 74° E 22:13:39 10° SSE
Okean O Rocket 3.0 22:07:26 10° ESE 22:10:20 17° ENE 22:13:17 10° NNE
CZ-4B R/B 4.0 22:06:45 10° ESE 22:11:14 27° ENE 22:15:40 10° N
SMAP 3.0 22:06:54 10° SSE 22:11:30 68° ENE 22:16:08 10° N
Meteor 2-14 Rocket 4.4 22:07:00 10° N 22:13:07 74° E 22:19:09 10° SSE
Lacrosse 5 rocket 2.4 22:14:40 10° NNW 22:18:00 25° NE 22:20:52 13° E
Cosmos 1814 Rocket 4.0 22:12:54 10° SSW 22:18:07 78° ESE 22:23:19 10° NNE
PAYLOAD B 4.4 22:17:10 10° SE 22:22:34 50° ENE 22:27:58 10° N
Cosmos 1570 Rocket 4.0 22:17:30 10° S 22:22:43 74° ESE 22:27:57 10° NNE
Sich 1 3.2 22:20:38 10° N 22:24:57 75° W 22:29:16 10° S
SKYMED 2 4.4 22:21:46 10° NNE 22:25:38 31° E 22:29:29 10° SSE
CZ-2C R/B 2.8 22:22:00 10° SW 22:25:47 30° SSE 22:29:17 11° ESE
Cosmos 1634 Rocket 4.2 22:20:03 10° S 22:26:22 79° W 22:32:44 10° N
Cosmos 2360 Rocket 3.8 22:24:58 10° NNE 22:27:45 14° NE 22:28:09 14° NE
MOS 1-B Rocket 4.3 22:22:28 10° NNE 22:28:33 59° ESE 22:35:34 10° S
Cosmos 2026 Rocket 4.1 22:23:27 10° N 22:29:34 77° W 22:35:35 10° S
PSLV R/B 3.6 22:27:11 10° SSE 22:30:49 61° ENE 22:34:31 10° N
ISS -3.7 22:28:55 10° NW 22:32:19 83° SW 22:35:42 10° SE
deb Chang Zheng 4 4.2 22:28:47 10° SE 22:32:36 32° ENE 22:36:25 10° N
Cosmos 44 Rocket 3.6 22:28:14 10° NNW 22:32:54 41° NE 22:37:23 10° ESE
Cosmos 1812 2.8 22:31:13 10° S 22:35:03 78° W 22:38:55 10° N
Meteor 2-21 Rocket 4.4 22:34:32 10° N 22:40:39 90° E 22:46:42 10° S
Aureole 3 Rocket 4.3 22:39:25 10° SE 22:43:03 26° E 22:47:34 11° NNE
Cosmos 1544 3.8 22:43:04 10° NNE 22:46:19 30° ENE 22:49:34 10° SE
Cosmos 1818 3.6 22:41:17 10° NNW 22:46:42 57° NE 22:52:02 10° SE
Cosmos 2322 Rocket 2.9 22:45:31 10° N 22:50:31 30° ENE 22:52:58 22° E
Cosmos 1515 Rocket 3.8 22:46:46 10° SSE 22:51:01 47° E 22:54:13 17° NNE
Meteor 1-10 Rocket 4.2 22:46:37 10° S 22:52:18 62° E 22:57:53 10° NNE
Cosmos 1980 Rocket 3.0 22:48:51 10° NNW 22:54:20 54° WSW 22:59:46 10° S
USA 305 4.2 22:52:59 10° NNW 22:56:25 23° NNE 22:56:43 23° NNE
Meteor 1-11 Rocket 4.0 22:51:07 10° N 22:56:33 44° ENE 23:02:02 10° SSE
Cosmos 921 Rocket 2.8 22:53:23 10° SSW 22:57:34 90° ESE 23:00:52 17° NNE
Cosmos 1356 Rocket 3.9 22:53:41 10° N 22:57:38 37° ENE 23:01:36 10° SE
APEX 2.8 22:53:59 10° SSW 22:57:58 79° ESE 22:59:14 36° NNE
SJ-11-01 4.3 22:54:09 10° SSE 22:58:47 57° ENE 23:03:27 10° N
Cosmos 2208 Rocket 4.5 22:55:42 10° SSW 23:01:02 64° WNW 23:06:29 10° NNE
USA 267 4.0 22:56:58 15° NE 23:02:04 46° NNW 23:08:12 10° W
COSMOS 2455 4.5 22:58:59 10° WSW 23:04:10 29° NW 23:09:24 10° N
Tiangong 2.9 23:01:49 10° SSW 23:04:10 21° SSE 23:04:10 21° SSE
Cosmos 1655 Rocket 4.0 22:58:39 10° N 23:05:01 66° E 23:11:18 10° SSE
DEBRIS 3.0 23:03:10 10° SSW 23:05:29 44° SE 23:05:58 41° ESE
CZ-4 R/B 4.3 23:02:58 10° SSE 23:07:02 62° ENE 23:11:08 10° N
YAOGAN 3 4.5 23:02:49 10° SSE 23:07:08 66° ENE 23:11:28 10° N
Cosmos 2150 Rocket 3.9 23:02:19 10° NNW 23:07:29 63° ENE 23:12:40 10° SSE
Cosmos 1867 3.7 23:03:18 10° SSW 23:08:36 56° ESE 23:10:44 34° ENE
H-2A R/B 2.4 23:04:52 10° S 23:09:59 66° WSW 23:15:00 10° NNW
Cosmos 2082 Rocket 3.9 23:05:22 10° WSW 23:10:16 29° NW 23:15:11 10° N
SL-16 R/B 2.2 23:05:08 10° NNW 23:10:44 56° ENE 23:16:17 10° SE
ARGOS 3.0 23:06:42 10° SSE 23:12:06 77° ENE 23:17:31 10° N
COSMO-SKYMED 1 2.7 23:09:48 12° N 23:13:47 76° WNW 23:18:07 10° SSW
Feng Yun 1-1 Rocket 4.4 23:08:51 10° SE 23:14:34 53° ENE 23:20:14 10° N
Cosmos 1125 Rocket 3.4 23:10:46 10° NNW 23:16:01 70° ENE 23:21:16 10° SSE
USA 32 4.0 23:10:57 10° S 23:16:03 60° E 23:19:45 19° NNE
Cosmos 1633 Rocket 4.1 23:11:58 10° NNW 23:16:09 46° W 23:20:21 10° SSW
SL-08 RB Rocket 3.6 23:19:07 10° SSE 23:23:43 70° ENE 23:28:17 10° N
X-37B 1.7 23:21:03 10° WSW 23:23:02 39° W 23:23:02 39° W
Landsat 5 3.3 23:23:03 41° N 23:24:23 82° WNW 23:28:17 10° SSW
Cosmos 2333 Rocket 4.1 23:24:23 10° N 23:25:38 14° NNE 23:25:38 14° NNE
USA 306 4.2 23:25:05 10° NW 23:27:42 27° N 23:27:42 27° N
USA 234 3.3 23:28:32 16° SE 23:33:58 81° SW 23:40:33 10° NW
CZ-2C R/B 3.4 23:31:16 10° N 23:36:15 50° WNW 23:41:13 10° SW
Cosmos 2219 Rocket 4.4 23:35:42 10° N 23:35:58 11° N 23:35:58 11° N
NOSS 3-3 (A) 3.6 23:37:03 10° SSW 23:42:36 76° ESE 23:43:33 62° ENE
Cosmos 1933 Rocket 3.7 23:38:20 10° NNW 23:42:39 68° W 23:46:56 10° S
NOSS 3-3 (C) 3.7 23:37:09 10° SSW 23:42:42 76° ESE 23:43:37 63° ENE
Okean O Rocket 2.7 23:42:03 10° S 23:46:19 46° W 23:50:37 10° NNW
DMSP 5D-2 F-14 4.5 23:43:16 10° SSE 23:48:41 79° ENE 23:54:09 10° NNW
CZ-4B R/B 4.5 23:46:34 10° SSW 23:51:36 39° W 23:56:35 10° NNW
IRAS Rocket 4.3 23:54:48 61° SSE 23:54:48 61° SSE 23:59:27 10° S
ATLAS 5 CENTAUR R/B 3.9 23:53:02 10° NW 23:54:52 20° NW 23:54:52 20° NW
